TimeMDT,TemperatureF,Dew PointF,Humidity,Sea Level PressureIn,VisibilityMPH,Wind Direction,Wind SpeedMPH,Gust SpeedMPH,PrecipitationIn,Events,Conditions,WindDirDegrees,DateUTC
12:53 AM,52.0,21.9,31,29.76,10.0,East,6.9,-,N/A,,Clear,90,2013-06-19 06:53:00
1:53 AM,53.1,21.0,29,29.75,10.0,East,6.9,-,N/A,,Clear,80,2013-06-19 07:53:00
2:53 AM,53.1,21.9,30,29.73,10.0,ENE,6.9,-,N/A,,Clear,70,2013-06-19 08:53:00
3:53 AM,50.0,21.9,33,29.75,10.0,NE,6.9,-,N/A,,Clear,40,2013-06-19 09:53:00
4:53 AM,46.9,21.9,37,29.77,10.0,East,4.6,-,N/A,,Clear,80,2013-06-19 10:53:00
5:53 AM,43.0,23.0,45,29.79,10.0,NE,3.5,-,N/A,,Clear,50,2013-06-19 11:53:00
6:53 AM,48.0,24.1,39,29.80,10.0,Calm,Calm,-,N/A,,Clear,0,2013-06-19 12:53:00
7:53 AM,59.0,28.0,31,29.78,10.0,Calm,Calm,-,N/A,,Clear,0,2013-06-19 13:53:00
8:53 AM,70.0,28.0,21,29.81,10.0,ENE,3.5,-,N/A,,Clear,60,2013-06-19 14:53:00
9:53 AM,77.0,16.0,10,29.80,10.0,SSW,8.1,-,N/A,,Clear,200,2013-06-19 15:53:00
10:53 AM,80.1,8.1,6,29.79,10.0,SW,12.7,-,N/A,,Clear,220,2013-06-19 16:53:00
11:53 AM,82.9,8.1,6,29.79,10.0,South,12.7,26.5,N/A,,Clear,190,2013-06-19 17:53:00
12:53 PM,86.0,8.1,5,29.77,10.0,South,18.4,26.5,N/A,,Clear,170,2013-06-19 18:53:00
1:53 PM,88.0,7.0,5,29.73,10.0,SSW,13.8,24.2,N/A,,Clear,200,2013-06-19 19:53:00
2:53 PM,91.0,6.1,4,29.70,10.0,SSW,21.9,33.4,N/A,,Clear,200,2013-06-19 20:53:00
3:53 PM,91.0,5.0,4,29.69,10.0,South,21.9,33.4,N/A,,Clear,190,2013-06-19 21:53:00
4:53 PM,90.0,7.0,4,29.68,10.0,SSW,17.3,34.5,N/A,,Clear,200,2013-06-19 22:53:00
5:31 PM,89.6,6.8,4,29.89,10.0,SW,20.7,29.9,N/A,,Clear,230,2013-06-19 23:31:00
5:53 PM,88.0,3.0,4,29.68,10.0,WSW,16.1,26.5,N/A,,Clear,240,2013-06-19 23:53:00
6:53 PM,87.1,1.9,4,29.68,10.0,SW,12.7,26.5,N/A,,Clear,220,2013-06-20 00:53:00
7:53 PM,82.0,6.1,6,29.66,10.0,SW,13.8,27.6,N/A,,Clear,230,2013-06-20 01:53:00
8:53 PM,73.0,9.0,8,29.66,10.0,SSW,10.4,-,N/A,,Clear,200,2013-06-20 02:53:00
9:53 PM,69.1,9.0,10,29.68,10.0,South,10.4,-,N/A,,Clear,190,2013-06-20 03:53:00
10:53 PM,68.0,12.9,12,29.70,10.0,South,9.2,-,N/A,,Clear,190,2013-06-20 04:53:00
11:53 PM,63.0,16.0,16,29.71,10.0,SSW,10.4,-,N/A,,Clear,200,2013-06-20 05:53:00